#timestamp,LO_Frequency,Hit 
1505026815.6,286046993.8,N
1505026835.5,286046994.8,N
1505026855.3,286046994.1,N
1505026875.1,286046999.9,N
1505026895.9,286047007.5,N
1505026915.7,286047005.1,N
1505026935.5,286047005.3,N
1505026955.3,286047005.9,N
1505026975.2,286047003.6,N
1505026995.0,286047001.7,N
1505026995.9,286047001.7,N
1505027015.7,286046999.0,N
1505027035.6,286046999.0,N
1505027055.4,286047003.4,N
1505027075.2,286047005.6,N
1505027095.1,286047003.1,N
1505027096.0,286047003.1,N
1505027115.8,286047005.9,N
1505027135.6,286047000.9,N
1505027155.5,286046997.7,N
1505027175.3,286046993.5,N
1505027195.1,286046993.9,N
1505027215.9,286046992.9,N
1505027235.7,286046991.4,N
1505027255.5,286046988.9,N
1505027275.4,286046997.9,N
1505027295.2,286046999.3,N
1505027315.0,286046999.6,N
1505027315.9,286046999.6,N
1505027335.8,286046995.7,N
1505027355.6,286046996.2,N
1505027375.4,286046996.2,N
1505027395.2,286046998.5,N
1505027415.1,286046996.7,N
1505027416.0,286046996.7,N
1505027435.8,286046996.4,N
1505027455.6,286046993.8,N
1505027475.5,286046994.8,N
1505027495.3,286046996.0,N
1505027515.1,286046992.4,N
1505027535.9,286046990.4,N
1505027555.7,286046987.4,P
1505027575.5,286046991.1,N
1505027595.4,286046994.3,N
1505027615.2,286046998.0,N
1505027635.0,286046999.9,N
1505027635.9,286046999.9,N
1505027655.8,286046998.1,N
1505027675.6,286047002.5,N
1505027695.4,286047004.3,N
1505027715.3,286047004.2,N
1505027735.1,286047003.5,N
1505027736.0,286047003.5,N
1505027755.8,286047004.0,N
1505027775.7,286047000.0,N
1505027795.5,286046996.6,N
1505027815.3,286046995.0,N
1505027835.2,286046997.4,N
1505027855.9,286046998.9,N
1505027875.7,286047002.8,N
1505027895.5,286046996.5,N
1505027915.4,286046993.3,N
1505027935.2,286046994.0,N
1505027955.0,286046993.8,N
1505027955.9,286046993.8,N
1505027975.8,286046993.5,N
1505027995.6,286046992.3,N
1505028015.4,286046992.4,N
1505028035.3,286046993.1,N
1505028055.1,286046998.1,N
1505028056.0,286046998.1,N
1505028075.8,286047002.7,N
1505028095.7,286047002.8,N
1505028115.5,286046999.0,N
1505028135.3,286046997.1,N
1505028155.2,286046995.2,N
1505028175.9,286046991.8,N
1505028195.7,286046991.8,N
1505028215.5,286046994.7,N
1505028235.4,286046994.8,N
1505028255.2,286046990.2,N
1505028275.0,286046993.4,N
1505028275.9,286046993.4,N
1505028295.8,286046994.0,N
1505028315.6,286046994.6,N
1505028335.4,286046992.8,N
1505028355.3,286046995.4,N
1505028375.1,286046992.0,N
1505028376.0,286046992.0,N
1505028395.8,286046992.7,N
1505028415.7,286046990.9,P
1505028435.5,286046995.1,N
1505028455.3,286046994.1,P
1505028475.2,286046992.1,P
1505028495.0,286047000.3,N
1505028495.9,286047000.3,N
1505028515.7,286047000.3,N
1505028535.6,286047006.0,N
1505028555.4,286047005.1,N
1505028575.2,286047003.4,N
1505028595.1,286047003.5,N
1505028596.0,286047003.5,N
1505028615.8,286047005.3,N
1505028635.6,286047005.2,N
1505028655.5,286047004.3,N
1505028675.3,286047005.3,N
1505028695.1,286047004.8,N
1505028715.9,286047001.9,N
1505028735.7,286047000.9,N
1505028755.5,286047002.8,N
1505028775.4,286047004.2,N
1505028795.2,286047002.7,N
1505028815.0,286047000.9,N
1505028815.9,286047000.9,N
1505028835.7,286047000.6,N
1505028855.6,286047002.5,N
1505028875.4,286047003.1,N
1505028895.2,286047003.0,N
1505028915.1,286047006.0,N
1505028916.0,286047006.0,N
1505028935.8,286047007.0,N
1505028955.6,286047008.5,N
1505028975.5,286047012.3,P
1505028995.3,286047005.8,N
1505029015.1,286047006.5,N
1505029035.9,286047006.2,N
1505029055.7,286047007.6,N
1505029075.5,286047003.0,N
1505029095.4,286047003.3,N
1505029115.2,286047003.0,N
1505029135.0,286047008.6,N
1505029135.9,286047008.6,N
1505029155.8,286047008.0,N
1505029175.6,286047007.4,N
1505029195.4,286047012.2,P
1505029215.3,286047006.6,N
1505029235.1,286047012.0,P
1505029255.8,286047015.2,P
1505029275.7,286047002.3,N
1505029295.5,286046997.6,N
1505029315.3,286046999.1,N
1505029335.2,286046995.2,N
1505029355.9,286046996.4,N
1505029375.7,286046995.4,N
1505029395.6,286046994.2,N
1505029415.4,286046992.9,N
1505029435.2,286046989.7,N
1505029455.1,286046987.8,N
1505029456.0,286046987.8,N
1505029475.8,286046989.9,N
1505029495.6,286046990.0,N
1505029515.4,286046994.7,N
1505029535.3,286046990.2,N
1505029555.1,286046995.8,N
1505029575.8,286046995.7,N
1505029595.7,286046990.7,N
1505029615.5,286046987.9,N
1505029635.3,286046992.0,N
1505029655.2,286046991.7,N
1505029675.9,286046993.9,N
1505029695.7,286047000.6,N
1505029715.6,286046998.5,N
1505029735.4,286046997.4,N
1505029755.2,286046998.0,N
1505029775.1,286046995.5,N
1505029776.0,286046995.5,N
1505029795.8,286046998.5,N
1505029815.6,286046996.6,N
1505029835.4,286046995.7,N
1505029855.3,286046993.0,N
1505029875.1,286046996.1,N
1505029895.8,286046999.1,N
1505029915.7,286046995.2,N
1505029935.5,286047001.1,N
1505029955.3,286047001.2,N
1505029975.2,286046999.8,N
1505029995.9,286046998.4,N
1505030015.7,286046999.2,N
1505030035.6,286046993.7,N
1505030055.4,286046992.1,N
1505030075.2,286046989.1,P
1505030095.1,286046995.3,N
1505030096.0,286046995.3,N
1505030115.8,286046991.9,N
1505030135.6,286046992.4,N
1505030155.5,286046989.2,P
1505030175.3,286046995.0,N
1505030195.1,286046996.5,N
1505030215.9,286046997.9,N
1505030235.7,286046997.4,N
1505030255.5,286046997.2,N
1505030275.4,286046997.6,N
1505030295.2,286047000.3,N
1505030315.0,286046996.6,N
1505030315.9,286046996.6,N
1505030335.8,286046996.8,N
1505030355.6,286047004.8,N
1505030375.4,286047010.8,P
1505030395.3,286047016.6,N
